Observation Tools

Eastern white pine Photo courtesy of Sally and Andy Wasowski, Lady Bird Wildflower Center, www.wildflower.org.

Eastern white pine (Pinus strobus)


Also Known As: Soft pine, Northern white pine, White pine
Plant Family: Pine (Pinacae)
Project BudBurst Plant Group: Conifers

Identification Hints: White pines are distinct in having needles in clusters of 5 that are about 5 inches long. Pinyon pines can also have 5 needles but have shorter stiffer needles and rigid cone scales. Eastern white pine is distinct in having slender needles, and long cones with thin flexible scales. It is very similar to western white pine, but has smaller cones averaging 12 cm (5 in) as contrasted with western white pine which has cones almost twice as large 24 cm (10 in). Both are common ornamentals.

Did you Know? During the age of sail, eastern white pine was valued for masts. In colonial times, many trees were marked with a broad arrow reserving them for use by the British Royal Navy. Today, wood from the eastern white pine is used for cabinets, toys, boxes, and similar items. It is frequently used for windbreaks.


Live Map for Eastern white pine

Other years available for viewing:

Below you can view all observations that have been reported in for Eastern white pine (If the map below is empty then there have not been any observations reported.)

Use the navigation buttons on the left to zoom in/out and pan around. Click on each place marker to get detail information about that observation.

Leaf/Needles/Stalk = Leaf/Needles/Stalk Flower = Flower Pollen = Pollen Fruiting = Fruiting Color = Color

--Back to Top--

close help window button

The table below displays all the data that has been submitted to Project BudBurst. By default, the data is sorted by the date on which the phenophase occurred. Clicking the up and down arrows next to each column name allows you to sort on any value. If there have been more than 10 observations submitted, you can choose how many to display at a time using the "Show __ entries" control. You can also page through the data using the previous and next buttons at the bottom right of the table.

The Search box allows you to search all of the data. Searching by date, species, phenophase, etc. is easy—just start typing and the table will immediately change to contain only observations that contain your search phrase. Do you want to see only 2012 observations? Just type "2012" in the search box. Only want to see maples? Enter "Acer." You can combine searches, too! Searching for "acer 2012" will narrow your results to only the maples that were observed in 2012 (assuming that any observations exist, of course).

Once you have your results in the order desired, you can use any of the buttons above the search box to copy the results to the clipboard; save them as a text, or spreadsheet; or even print them from your browser!

Observational data for Eastern white pine:

help button
Date Contributor Common Name Species Phenophase Latitude Longitude Obs#
Thu Apr 03 00:00:00 GMT 2008 cpartain Eastern white pine Pinus strobus Full Flower 34.766600000000000 -92.369600000000000 2673
Tue May 20 00:00:00 GMT 2008 SusannahPrindle Eastern white pine Pinus strobus Full Flower 39.096700000000000 -77.023900000000000 4623
Sun Feb 15 00:00:00 GMT 2009 anonymous Eastern white pine Pinus strobus First Needles 39.160000000000000 -86.490000000000000 6241
Sat Mar 28 00:00:00 GMT 2009 anonymous Eastern white pine Pinus strobus First Needles 39.175900000000000 -86.534600000000000 6216
Mon Apr 06 00:00:00 GMT 2009 anonymous Eastern white pine Pinus strobus First Pollen 39.175900000000000 -86.534600000000000 6217
Sun Feb 15 00:00:00 GMT 2009 anonymous Eastern white pine Pinus strobus First Needles 39.160000000000000 -86.490000000000000 6238
Thu Apr 02 00:00:00 GMT 2009 jenulsh@northhempstead.com Eastern white pine Pinus strobus First Needles 40.705500000000000 -73.448900000000000 6381
Sat Apr 25 00:00:00 GMT 2009 henrickd Eastern white pine Pinus strobus First Needles 42.017300000000000 -91.586800000000000 6610
Fri May 01 00:00:00 GMT 2009 joe Eastern white pine Pinus strobus First Needles 42.314800000000000 -83.709100000000000 6908
Tue May 05 00:00:00 GMT 2009 joe Eastern white pine Pinus strobus First Pollen 42.314800000000000 -83.709100000000000 7022
Tue May 12 00:00:00 GMT 2009 compobs Eastern white pine Pinus strobus First Needles 45.379400000000000 -93.076700000000000 7551
Sun May 17 00:00:00 GMT 2009 birdlover Eastern white pine Pinus strobus First Needles 40.790300000000000 -96.791500000000000 8211
Wed Jun 10 00:00:00 GMT 2009 palaback Eastern white pine Pinus strobus First Needles 46.858900000000000 -113.985000000000000 8624
Mon Jun 08 00:00:00 GMT 2009 palaback Eastern white pine Pinus strobus First Pollen 46.858900000000000 -113.985000000000000 8625
Wed Jun 10 00:00:00 GMT 2009 palaback Eastern white pine Pinus strobus Full Pollen 46.858900000000000 -113.985000000000000 8626
Tue Apr 21 00:00:00 GMT 2009 anonymous Eastern white pine Pinus strobus First Needles 39.066800000000000 -76.996900000000000 9060
Wed May 13 00:00:00 GMT 2009 anonymous Eastern white pine Pinus strobus First Pollen 39.066800000000000 -76.996900000000000 9061
Sat Aug 15 00:00:00 GMT 2009 anonymous Eastern white pine Pinus strobus First Ripe Fruit 39.066800000000000 -76.996900000000000 9062
Wed Feb 17 00:00:00 GMT 2010 anonymous Eastern white pine Pinus strobus First Needles 38.861200000000000 -86.487200000000000 9117
Wed Feb 17 00:00:00 GMT 2010 anonymous Eastern white pine Pinus strobus First Needles 38.861200000000000 -86.487200000000000 9578
Mon Mar 29 00:00:00 GMT 2010 anonymous Eastern white pine Pinus strobus First Pollen 38.861200000000000 -86.487200000000000 9579
Mon Mar 08 00:00:00 GMT 2010 anonymous Eastern white pine Pinus strobus First Needles 38.861200000000000 -86.487200000000000 9646
Mon Mar 29 00:00:00 GMT 2010 anonymous Eastern white pine Pinus strobus First Pollen 38.861200000000000 -86.487200000000000 9647
Mon Mar 08 00:00:00 GMT 2010 anonymous Eastern white pine Pinus strobus First Needles 38.861200000000000 -86.487200000000000 9644
Mon Mar 29 00:00:00 GMT 2010 anonymous Eastern white pine Pinus strobus First Pollen 38.861200000000000 -86.487200000000000 9645
Wed Mar 31 00:00:00 GMT 2010 anonymous Eastern white pine Pinus strobus First Pollen 36.677700000000000 -80.041400000000000 10507
Sun Apr 11 00:00:00 GMT 2010 anonymous Eastern white pine Pinus strobus First Needles 36.925300000000000 -80.019200000000000 10520
Sat Mar 13 00:00:00 GMT 2010 anonymous Eastern white pine Pinus strobus First Pollen 36.925300000000000 -80.019200000000000 10521
Tue Apr 06 00:00:00 GMT 2010 anonymous Eastern white pine Pinus strobus Full Pollen 36.925300000000000 -80.019200000000000 10522
Fri Apr 02 00:00:00 GMT 2010 Tasha.Berg Eastern white pine Pinus strobus First Pollen 37.541100000000000 -77.536400000000000 10571
Sat Apr 10 00:00:00 GMT 2010 Tasha.Berg Eastern white pine Pinus strobus Full Pollen 37.541100000000000 -77.536400000000000 10572
Tue Apr 20 00:00:00 GMT 2010 birdlover Eastern white pine Pinus strobus First Needles 40.790300000000000 -96.791500000000000 10817
Sat May 01 00:00:00 GMT 2010 SusannahPrindle Eastern white pine Pinus strobus First Needles 39.096700000000000 -77.023900000000000 11062
Mon May 03 00:00:00 GMT 2010 SusannahPrindle Eastern white pine Pinus strobus First Needles 39.096700000000000 -77.023900000000000 11631
Tue May 11 00:00:00 GMT 2010 SusannahPrindle Eastern white pine Pinus strobus Full Pollen 39.096700000000000 -77.023900000000000 11632
Mon May 09 00:00:00 GMT 2011 birdlover Eastern white pine Pinus strobus First Needles 40.790300000000000 -96.791500000000000 13120
Sat May 07 00:00:00 GMT 2011 SusannahPrindle Eastern white pine Pinus strobus First Needles 39.096700000000000 -77.023900000000000 13123
Sun Aug 07 00:00:00 GMT 2011 SusannahPrindle Eastern white pine Pinus strobus First Ripe Fruit 39.096700000000000 -77.023900000000000 13124
Thu Aug 18 00:00:00 GMT 2011 SusannahPrindle Eastern white pine Pinus strobus Full Fruiting 39.096700000000000 -77.023900000000000 13125
Fri Feb 17 00:00:00 GMT 2012 asale003 Eastern white pine Pinus strobus First Needles 37.579400000000000 -76.442200000000000 14099
Fri Mar 02 00:00:00 GMT 2012 cswhite Eastern white pine Pinus strobus First Needles 34.728800000000000 -76.822100000000000 14152
Wed Mar 28 00:00:00 GMT 2012 ZoeKeiper Eastern white pine Pinus strobus First Needles 44.685200000000000 -69.632600000000000 14539
Wed Mar 28 00:00:00 GMT 2012 ZoeKeiper Eastern white pine Pinus strobus Full Pollen 44.685200000000000 -69.632600000000000 14540
Mon Apr 02 00:00:00 GMT 2012 buckfolk Eastern white pine Pinus strobus First Pollen 36.601800000000000 -82.202500000000000 14698
Tue Apr 10 00:00:00 GMT 2012 jrj820 Eastern white pine Pinus strobus Fruit (Early) 42.052100000000000 -87.680100000000000 14897
Tue Apr 10 00:00:00 GMT 2012 ZoeKeiper Eastern white pine Pinus strobus First Ripe Fruit 44.685200000000000 -69.632600000000000 14880
Wed Apr 11 00:00:00 GMT 2012 mustanggirl Eastern white pine Pinus strobus First Needles 42.056000000000000 -87.683900000000000 14935
Thu Apr 19 00:00:00 GMT 2012 jrj820 Eastern white pine Pinus strobus Fruit (Early) 42.052100000000000 -87.680100000000000 15095
Fri Apr 27 00:00:00 GMT 2012 Smcclennon Eastern white pine Pinus strobus First Needles 44.001000000000000 -71.041400000000000 15329
Sun Apr 29 00:00:00 GMT 2012 s_alainar Eastern white pine Pinus strobus First Needles 42.828300000000000 -70.906100000000000 15367
Sun Apr 29 00:00:00 GMT 2012 dipp293 Eastern white pine Pinus strobus First Needles 42.571700000000000 -70.777200000000000 15355
Sun Apr 29 00:00:00 GMT 2012 dipp293 Eastern white pine Pinus strobus Fruit (Early) 42.571700000000000 -70.777200000000000 15354
Sun Apr 29 00:00:00 GMT 2012 chinookoa Eastern white pine Pinus strobus Fruit (Early) 42.590000000000000 -70.860000000000000 15358
Tue May 08 00:00:00 GMT 2012 ZoeKeiper Eastern white pine Pinus strobus First Pollen 44.685200000000000 -69.632600000000000 15495
Wed May 16 00:00:00 GMT 2012 cerendon Eastern white pine Pinus strobus Pollen (Early) 43.960000000000000 -74.164900000000000 15656
Wed May 16 00:00:00 GMT 2012 treespee Eastern white pine Pinus strobus Pollen (Middle) 43.960000000000000 -74.164900000000000 15659
Tue May 22 00:00:00 GMT 2012 buckfolk Eastern white pine Pinus strobus First Needles 36.601800000000000 -82.202500000000000 15764
Wed May 02 00:00:00 GMT 2012 buckfolk Eastern white pine Pinus strobus Full Pollen 36.601800000000000 -82.202500000000000 15765
Tue May 01 00:00:00 GMT 2012 mrsboyle Eastern white pine Pinus strobus First Needles 42.354500000000000 -85.443300000000000 15810
Thu May 10 00:00:00 GMT 2012 mrsboyle Eastern white pine Pinus strobus First Pollen 42.354500000000000 -85.443300000000000 15811
Tue May 22 00:00:00 GMT 2012 mrsboyle Eastern white pine Pinus strobus Full Pollen 42.354500000000000 -85.443300000000000 15812
Sat May 12 00:00:00 GMT 2012 DonnTF Eastern white pine Pinus strobus First Needles 41.904900000000000 -87.932700000000000 15831
Sat May 12 00:00:00 GMT 2012 DonnTF Eastern white pine Pinus strobus First Needles 41.904900000000000 -87.932700000000000 15830
Sat Apr 21 00:00:00 GMT 2012 birdlover Eastern white pine Pinus strobus First Needles 40.790300000000000 -96.791500000000000 16110
Fri Apr 20 00:00:00 GMT 2012 SusannahPrindle Eastern white pine Pinus strobus First Needles 39.096700000000000 -77.023900000000000 16194
Sat May 26 00:00:00 GMT 2012 SusannahPrindle Eastern white pine Pinus strobus Full Pollen 39.096700000000000 -77.023900000000000 16195
Wed Aug 15 00:00:00 GMT 2012 Cheryloakes50 Eastern white pine Pinus strobus Full Fruiting 43.279400000000000 -70.686700000000000 16415
Tue Sep 04 00:00:00 GMT 2012 vzarbaugh Eastern white pine Pinus strobus Fruit (Early) 42.587000000000000 -83.093500000000000 16480
Tue Sep 04 00:00:00 GMT 2012 hailey_abro Eastern white pine Pinus strobus Fruit (Middle) 42.616500000000000 -83.107800000000000 16481
Tue Sep 04 00:00:00 GMT 2012 hailey_abro Eastern white pine Pinus strobus Fruit (Middle) 42.616500000000000 -83.107800000000000 16482
Tue Sep 04 00:00:00 GMT 2012 olngo18 Eastern white pine Pinus strobus Pollen (None) 42.605600000000000 -83.149900000000000 16492
Tue Sep 04 00:00:00 GMT 2012 angelcake1 Eastern white pine Pinus strobus First Needles 42.594000000000000 -83.111600000000000 16495
Tue Sep 04 00:00:00 GMT 2012 olngo18 Eastern white pine Pinus strobus Pollen (None) 42.605600000000000 -83.149900000000000 16497
Tue Sep 04 00:00:00 GMT 2012 aakash00 Eastern white pine Pinus strobus Fruit (Late) 42.615700000000000 -83.106500000000000 16498
Tue Sep 04 00:00:00 GMT 2012 bdstephens18 Eastern white pine Pinus strobus First Needles 42.598500000000000 -83.122100000000000 16507
Tue Sep 04 00:00:00 GMT 2012 bdstephens18 Eastern white pine Pinus strobus First Needles 42.598500000000000 -83.122100000000000 16504
Tue Sep 04 00:00:00 GMT 2012 aakash00 Eastern white pine Pinus strobus Fruit (Middle) 42.615700000000000 -83.106500000000000 16512
Tue Sep 04 00:00:00 GMT 2012 aakash00 Eastern white pine Pinus strobus Full Fruiting 42.615700000000000 -83.106500000000000 16513
Tue Sep 04 00:00:00 GMT 2012 bdstephens18 Eastern white pine Pinus strobus First Needles 42.598500000000000 -83.122100000000000 16443
Wed Sep 05 00:00:00 GMT 2012 apujara Eastern white pine Pinus strobus Fruit (Middle) 42.542100000000000 -83.096300000000000 16536
Thu Sep 20 00:00:00 GMT 2012 Cheryloakes50 Eastern white pine Pinus strobus Full Fruiting 43.190000000000000 -70.360000000000000 16734
Fri Apr 20 00:00:00 GMT 2012 SusannahPrindle Eastern white pine Pinus strobus First Needles 39.096700000000000 -77.023900000000000 17690
Tue Aug 07 00:00:00 GMT 2012 SusannahPrindle Eastern white pine Pinus strobus Full Fruiting 39.096700000000000 -77.023900000000000 17691
Fri Mar 01 00:00:00 GMT 2013 Maxiecat Eastern white pine Pinus strobus First Needles 43.108100000000000 -75.771900000000000 18087
Tue Jan 01 00:00:00 GMT 2013 Anthere Eastern white pine Pinus strobus First Needles 33.444000000000000 -111.938000000000000 18121
Sat Mar 05 00:00:00 GMT 2011 Anthere_Home_reporter7 Eastern white pine Pinus strobus First Needles 33.444000000000000 -111.938000000000000 18122
Wed Mar 13 00:00:00 GMT 2013 fmassy_E._O._Smith_reporter9 Eastern white pine Pinus strobus First Needles 41.801200000000000 -72.241800000000000 18151
Wed Mar 13 00:00:00 GMT 2013 fmassy_E._O._Smith_reporter8 Eastern white pine Pinus strobus First Needles 41.801200000000000 -72.241800000000000 18154
Sun Mar 24 00:00:00 GMT 2013 pkarkos Eastern white pine Pinus strobus First Needles 42.281600000000000 -83.721900000000000 18309
Tue Mar 26 00:00:00 GMT 2013 kspiv Eastern white pine Pinus strobus Pollen (Early) 42.295600000000000 -83.724900000000000 18357
Mon Jan 14 00:00:00 GMT 2013 justinlee Eastern white pine Pinus strobus First Needles 42.297400000000000 -83.719100000000000 18415
Thu Mar 14 00:00:00 GMT 2013 justinlee Eastern white pine Pinus strobus First Pollen 42.297400000000000 -83.719100000000000 18416
Thu Jan 03 00:00:00 GMT 2013 muziguo Eastern white pine Pinus strobus First Needles 39.165300000000000 -86.526400000000000 18481
Fri Jan 25 00:00:00 GMT 2013 mglassey Eastern white pine Pinus strobus First Needles 39.170400000000000 -86.509500000000000 18564
Tue Apr 02 00:00:00 GMT 2013 mglassey Eastern white pine Pinus strobus First Pollen 39.170400000000000 -86.509500000000000 18565
Tue Jan 01 00:00:00 GMT 2013 kmbosler Eastern white pine Pinus strobus First Needles 39.165300000000000 -86.526400000000000 18576
Fri Apr 05 00:00:00 GMT 2013 fmassy_E._O._Smith_reporter2 Eastern white pine Pinus strobus First Needles 41.801200000000000 -72.241800000000000 18657
Mon Apr 15 00:00:00 GMT 2013 storeyr Eastern white pine Pinus strobus First Needles 42.391000000000000 -83.540000000000000 18935
Tue Jan 01 00:00:00 GMT 2013 jiece18 Eastern white pine Pinus strobus First Needles 39.167000000000000 -86.493600000000000 19076
Wed May 01 00:00:00 GMT 2013 Prisms Eastern white pine Pinus strobus First Pollen 42.375900000000000 -72.705500000000000 19512
Mon May 06 00:00:00 GMT 2013 cwetzel_HCC_woodland_trail_reporter4 Eastern white pine Pinus strobus First Needles 42.194000000000000 -72.655600000000000 20128
Mon May 06 00:00:00 GMT 2013 cwetzel_HCC_woodland_trail_reporter16 Eastern white pine Pinus strobus First Needles 42.194000000000000 -72.655600000000000 20199
Mon May 13 00:00:00 GMT 2013 birdbud7 Eastern white pine Pinus strobus First Needles 42.391100000000000 -79.344300000000000 20256
Sat May 18 00:00:00 GMT 2013 Angelyn Eastern white pine Pinus strobus First Needles 35.619100000000000 -82.765100000000000 20770
Sat May 25 00:00:00 GMT 2013 birdlover Eastern white pine Pinus strobus First Needles 40.790300000000000 -96.791500000000000 20885
Sun Jun 02 00:00:00 GMT 2013 Eliot.carlson93 Eastern white pine Pinus strobus First Needles 41.421200000000000 -72.876500000000000 20915
Sat May 11 00:00:00 GMT 2013 SusannahPrindle Eastern white pine Pinus strobus First Needles 39.096700000000000 -77.023900000000000 21737
Wed Sep 11 00:00:00 GMT 2013 hdumont29 Eastern white pine Pinus strobus Full Pollen 43.113500000000000 -71.737100000000000 22052
Mon Sep 16 00:00:00 GMT 2013 hdumont29 Eastern white pine Pinus strobus First Needles 43.113500000000000 -71.737100000000000 22569
Tue Nov 05 00:00:00 GMT 2013 Thomas_Thornton Eastern white pine Pinus strobus Fruit (Late) 35.428700000000000 -80.908300000000000 22968
Sat Nov 23 00:00:00 GMT 2013 bberry Eastern white pine Pinus strobus Full Fruiting 40.766600000000000 -73.974900000000000 23998
Sat May 11 00:00:00 GMT 2013 SusannahPrindle Eastern white pine Pinus strobus First Needles 39.096700000000000 -77.023900000000000 24669
Thu Aug 15 00:00:00 GMT 2013 SusannahPrindle Eastern white pine Pinus strobus Full Fruiting 39.096700000000000 -77.023900000000000 24670
Sat Mar 08 00:00:00 GMT 2014 cdudie Eastern white pine Pinus strobus First Needles (None) 39.817300000000000 -77.175500000000000 26167
Sat Mar 08 00:00:00 GMT 2014 cdudie Eastern white pine Pinus strobus Pollen (None) 39.817300000000000 -77.175500000000000 26168
Sat Mar 08 00:00:00 GMT 2014 cdudie Eastern white pine Pinus strobus Fruit (None) 39.817300000000000 -77.175500000000000 26169
Wed Apr 02 00:00:00 GMT 2008 ESlusser29 Eastern white pine Pinus strobus First Needles 39.728500000000000 -77.027000000000000 26170
Tue Jun 10 00:00:00 GMT 2008 ESlusser29 Eastern white pine Pinus strobus First Pollen 39.728500000000000 -77.027000000000000 26171
Tue Aug 05 00:00:00 GMT 2008 ESlusser29 Eastern white pine Pinus strobus Full Pollen 39.728500000000000 -77.027000000000000 26172
Wed Aug 20 00:00:00 GMT 2008 ESlusser29 Eastern white pine Pinus strobus First Ripe Fruit 39.728500000000000 -77.027000000000000 26173
Fri Sep 12 00:00:00 GMT 2008 ESlusser29 Eastern white pine Pinus strobus Full Fruiting 39.728500000000000 -77.027000000000000 26174
Sat Mar 15 00:00:00 GMT 2014 hayley Eastern white pine Pinus strobus First Needles (None) 39.791700000000000 -76.989000000000000 26977
Sat Mar 15 00:00:00 GMT 2014 hayley Eastern white pine Pinus strobus Pollen (None) 39.791700000000000 -76.989000000000000 26978
Sat Mar 15 00:00:00 GMT 2014 hayley Eastern white pine Pinus strobus Fruit (None) 39.791700000000000 -76.989000000000000 26979
Sun Mar 23 00:00:00 GMT 2014 kjones0438 Eastern white pine Pinus strobus First Needles 37.770300000000000 -87.224700000000000 27515
Sun Mar 23 00:00:00 GMT 2014 kjones0438 Eastern white pine Pinus strobus Pollen (None) 37.770300000000000 -87.224700000000000 27516
Sun Mar 23 00:00:00 GMT 2014 kjones0438 Eastern white pine Pinus strobus Fruit (None) 37.770300000000000 -87.224700000000000 27517
Sun Mar 23 00:00:00 GMT 2014 kjones0438 Eastern white pine Pinus strobus First Needles 37.770300000000000 -87.224700000000000 27512
Sun Mar 23 00:00:00 GMT 2014 kjones0438 Eastern white pine Pinus strobus Pollen (None) 37.770300000000000 -87.224700000000000 27513
Sun Mar 23 00:00:00 GMT 2014 kjones0438 Eastern white pine Pinus strobus Fruit (None) 37.770300000000000 -87.224700000000000 27514
Thu Mar 27 00:00:00 GMT 2014 pghbotanicgarden Eastern white pine Pinus strobus First Needles (None) 40.417100000000000 -80.169300000000000 27665
Thu Mar 27 00:00:00 GMT 2014 pghbotanicgarden Eastern white pine Pinus strobus Pollen (None) 40.417100000000000 -80.169300000000000 27666
Thu Mar 27 00:00:00 GMT 2014 pghbotanicgarden Eastern white pine Pinus strobus Fruit (None) 40.417100000000000 -80.169300000000000 27667
Sun Mar 30 00:00:00 GMT 2014 community_Lasell_College_reporter6 Eastern white pine Pinus strobus First Needles 42.342200000000000 -71.240200000000000 27888
Sun Mar 30 00:00:00 GMT 2014 community_Lasell_College_reporter6 Eastern white pine Pinus strobus Pollen (None) 42.342200000000000 -71.240200000000000 27889
Sun Mar 30 00:00:00 GMT 2014 community_Lasell_College_reporter6 Eastern white pine Pinus strobus Fruit (None) 42.342200000000000 -71.240200000000000 27890
Mon Mar 31 00:00:00 GMT 2014 LaurenHussey Eastern white pine Pinus strobus First Needles 36.630000000000000 -88.715000000000000 27923
Mon Mar 31 00:00:00 GMT 2014 LaurenHussey Eastern white pine Pinus strobus Pollen (Early) 36.630000000000000 -88.715000000000000 27924
Mon Mar 31 00:00:00 GMT 2014 LaurenHussey Eastern white pine Pinus strobus Fruit (Early) 36.630000000000000 -88.715000000000000 27925
Fri Apr 04 00:00:00 GMT 2014 cgibbs0032 Eastern white pine Pinus strobus First Needles (None) 37.900865000000000 -84.490356000000000 28325
Fri Apr 04 00:00:00 GMT 2014 cgibbs0032 Eastern white pine Pinus strobus Pollen (Early) 37.900865000000000 -84.490356000000000 28326
Fri Apr 04 00:00:00 GMT 2014 cgibbs0032 Eastern white pine Pinus strobus Fruit (None) 37.900865000000000 -84.490356000000000 28327
Thu Apr 10 00:00:00 GMT 2014 Buddleia Eastern white pine Pinus strobus First Needles 40.252200000000000 -80.054510000000000 28628
Wed Mar 26 00:00:00 GMT 2014 knreeve Eastern white pine Pinus strobus First Ripe Fruit 39.166802000000000 -86.515541000000000 29018
Tue Apr 15 00:00:00 GMT 2014 ktl55805 Eastern white pine Pinus strobus First Needles 37.195331000000000 -85.676880000000000 29414
Tue Apr 15 00:00:00 GMT 2014 ktl55805 Eastern white pine Pinus strobus Pollen (None) 37.195331000000000 -85.676880000000000 29415
Tue Apr 15 00:00:00 GMT 2014 ktl55805 Eastern white pine Pinus strobus Fruit (None) 37.195331000000000 -85.676880000000000 29416
Fri May 02 00:00:00 GMT 2014 NikoG Eastern white pine Pinus strobus First Needles 42.130850000000000 -72.548250000000000 31217
Fri May 02 00:00:00 GMT 2014 NikoG Eastern white pine Pinus strobus Pollen (None) 42.130850000000000 -72.548250000000000 31218
Fri May 02 00:00:00 GMT 2014 NikoG Eastern white pine Pinus strobus Fruit (None) 42.130850000000000 -72.548250000000000 31219
Fri May 02 00:00:00 GMT 2014 nicolebermudez2014 Eastern white pine Pinus strobus First Needles 40.000000000000000 -100.000000000000000 31275
Fri May 02 00:00:00 GMT 2014 nicolebermudez2014 Eastern white pine Pinus strobus Pollen (None) 40.000000000000000 -100.000000000000000 31276
Fri May 02 00:00:00 GMT 2014 nicolebermudez2014 Eastern white pine Pinus strobus Fruit (Late) 40.000000000000000 -100.000000000000000 31277
Fri May 02 00:00:00 GMT 2014 buddyburst21 Eastern white pine Pinus strobus First Needles (None) 40.000000000000000 -100.000000000000000 31220
Fri May 02 00:00:00 GMT 2014 buddyburst21 Eastern white pine Pinus strobus Pollen (None) 40.000000000000000 -100.000000000000000 31221
Fri May 02 00:00:00 GMT 2014 kaila001 Eastern white pine Pinus strobus First Needles 42.130850000000000 -72.548250000000000 31226
Fri May 02 00:00:00 GMT 2014 kaila001 Eastern white pine Pinus strobus Pollen (None) 42.130850000000000 -72.548250000000000 31227
Fri May 02 00:00:00 GMT 2014 buddyburst21 Eastern white pine Pinus strobus Fruit (None) 40.000000000000000 -100.000000000000000 31222
Fri May 02 00:00:00 GMT 2014 kaila001 Eastern white pine Pinus strobus Fruit (Early) 42.130850000000000 -72.548250000000000 31228
Fri May 02 00:00:00 GMT 2014 buddyburst21 Eastern white pine Pinus strobus First Needles (None) 40.000000000000000 -100.000000000000000 31223
Fri May 02 00:00:00 GMT 2014 buddyburst21 Eastern white pine Pinus strobus Pollen (None) 40.000000000000000 -100.000000000000000 31224
Fri May 02 00:00:00 GMT 2014 buddyburst21 Eastern white pine Pinus strobus Fruit (None) 40.000000000000000 -100.000000000000000 31225
Wed May 14 00:00:00 GMT 2014 kaila001 Eastern white pine Pinus strobus First Needles 42.130850000000000 -72.548250000000000 32313
Wed May 14 00:00:00 GMT 2014 kaila001 Eastern white pine Pinus strobus Pollen (None) 42.130850000000000 -72.548250000000000 32314
Wed May 14 00:00:00 GMT 2014 kaila001 Eastern white pine Pinus strobus Fruit (Early) 42.130850000000000 -72.548250000000000 32315
Wed May 14 00:00:00 GMT 2014 nicolebermudez2014 Eastern white pine Pinus strobus First Needles 40.000000000000000 -100.000000000000000 32321
Wed May 14 00:00:00 GMT 2014 nicolebermudez2014 Eastern white pine Pinus strobus Pollen (None) 40.000000000000000 -100.000000000000000 32322
Wed May 14 00:00:00 GMT 2014 nicolebermudez2014 Eastern white pine Pinus strobus Fruit (Late) 40.000000000000000 -100.000000000000000 32323
Tue Jun 10 00:00:00 GMT 2014 Ballstonspa Eastern white pine Pinus strobus First Needles 42.991200000000000 -73.855540000000000 33901
Tue Jun 10 00:00:00 GMT 2014 Ballstonspa Eastern white pine Pinus strobus Pollen (Middle) 42.991200000000000 -73.855540000000000 33902
Tue Jun 10 00:00:00 GMT 2014 Ballstonspa Eastern white pine Pinus strobus Fruit (None) 42.991200000000000 -73.855540000000000 33903
Thu Jun 12 00:00:00 GMT 2014 Ballstonspa Eastern white pine Pinus strobus First Needles (None) 40.000000000000000 -100.000000000000000 34015
Thu Jun 12 00:00:00 GMT 2014 Ballstonspa Eastern white pine Pinus strobus Pollen (None) 40.000000000000000 -100.000000000000000 34016
Thu Jun 12 00:00:00 GMT 2014 Ballstonspa Eastern white pine Pinus strobus Fruit (Late) 40.000000000000000 -100.000000000000000 34017
Thu Jun 12 00:00:00 GMT 2014 Ballstonspa Eastern white pine Pinus strobus First Needles 42.984558000000000 -73.784180000000000 34039
Thu Jun 12 00:00:00 GMT 2014 Ballstonspa Eastern white pine Pinus strobus Pollen (None) 42.984558000000000 -73.784180000000000 34040
Thu Jun 12 00:00:00 GMT 2014 Ballstonspa Eastern white pine Pinus strobus Fruit (Early) 42.984558000000000 -73.784180000000000 34041
Sat May 10 00:00:00 GMT 2014 birdlover Eastern white pine Pinus strobus First Needles 40.790300000000000 -96.791500000000000 34146
Sat May 10 00:00:00 GMT 2014 SusannahPrindle Eastern white pine Pinus strobus First Needles 39.096700000000000 -77.023900000000000 34791
Sat Aug 30 00:00:00 GMT 2014 EmmanuelLopez96 Eastern white pine Pinus strobus First Ripe Fruit 42.131260000000000 -72.545920000000000 35897
Mon Sep 29 00:00:00 GMT 2014 EmmanuelLopez96 Eastern white pine Pinus strobus Full Fruiting 42.131260000000000 -72.545920000000000 35898
Sun Oct 05 00:00:00 GMT 2014 jlsnyder335_4H_reporter19 Eastern white pine Pinus strobus First Needles (None) 36.074290000000000 -79.332100000000000 36143
Sun Oct 05 00:00:00 GMT 2014 jlsnyder335_4H_reporter19 Eastern white pine Pinus strobus Pollen (None) 36.074290000000000 -79.332100000000000 36144
Sun Oct 05 00:00:00 GMT 2014 jlsnyder335_4H_reporter19 Eastern white pine Pinus strobus Fruit (None) 36.074290000000000 -79.332100000000000 36145
Fri Oct 10 00:00:00 GMT 2014 jgarrett0113 Eastern white pine Pinus strobus First Needles (None) 37.022730000000000 -88.696230000000000 36578
Fri Oct 10 00:00:00 GMT 2014 jgarrett0113 Eastern white pine Pinus strobus Pollen (Middle) 37.022730000000000 -88.696230000000000 36579
Fri Oct 10 00:00:00 GMT 2014 jgarrett0113 Eastern white pine Pinus strobus Fruit (None) 37.022730000000000 -88.696230000000000 36580
Fri Oct 10 00:00:00 GMT 2014 jgarrett0113 Eastern white pine Pinus strobus First Needles (None) 37.022730000000000 -88.696230000000000 36575
Fri Oct 10 00:00:00 GMT 2014 jgarrett0113 Eastern white pine Pinus strobus Pollen (None) 37.022730000000000 -88.696230000000000 36576
Fri Oct 10 00:00:00 GMT 2014 jgarrett0113 Eastern white pine Pinus strobus Fruit (None) 37.022730000000000 -88.696230000000000 36577
Fri Sep 26 00:00:00 GMT 2014 jgarrett0113 Eastern white pine Pinus strobus First Needles (None) 37.022730000000000 -88.696230000000000 36572
Fri Sep 26 00:00:00 GMT 2014 jgarrett0113 Eastern white pine Pinus strobus Pollen (None) 37.022730000000000 -88.696230000000000 36573
Fri Sep 26 00:00:00 GMT 2014 jgarrett0113 Eastern white pine Pinus strobus Fruit (None) 37.022730000000000 -88.696230000000000 36574
Sun Oct 12 00:00:00 GMT 2014 JBarrett Eastern white pine Pinus strobus First Needles 36.829790000000000 -84.849110000000000 36799
Sun Oct 12 00:00:00 GMT 2014 JBarrett Eastern white pine Pinus strobus Pollen (Middle) 36.829790000000000 -84.849110000000000 36800
Sun Oct 12 00:00:00 GMT 2014 JBarrett Eastern white pine Pinus strobus Fruit (Late) 36.829790000000000 -84.849110000000000 36801
Sun Oct 12 00:00:00 GMT 2014 JBarrett Eastern white pine Pinus strobus First Needles 36.829790000000000 -84.849110000000000 36802
Sun Oct 12 00:00:00 GMT 2014 JBarrett Eastern white pine Pinus strobus Pollen (Middle) 36.829790000000000 -84.849110000000000 36803
Sun Oct 12 00:00:00 GMT 2014 JBarrett Eastern white pine Pinus strobus Fruit (Late) 36.829790000000000 -84.849110000000000 36804
Sun Oct 12 00:00:00 GMT 2014 JBarrett Eastern white pine Pinus strobus First Needles 36.829790000000000 -84.849110000000000 36805
Sun Oct 12 00:00:00 GMT 2014 JBarrett Eastern white pine Pinus strobus Pollen (Middle) 36.829790000000000 -84.849110000000000 36806
Sun Oct 12 00:00:00 GMT 2014 JBarrett Eastern white pine Pinus strobus Fruit (Late) 36.829790000000000 -84.849110000000000 36807
Sun Oct 12 00:00:00 GMT 2014 monikablaine Eastern white pine Pinus strobus First Needles 37.946439000000000 -86.177405000000000 36994
Sun Oct 12 00:00:00 GMT 2014 monikablaine Eastern white pine Pinus strobus Pollen (Early) 37.946439000000000 -86.177405000000000 36995
Sun Oct 12 00:00:00 GMT 2014 monikablaine Eastern white pine Pinus strobus Fruit (Early) 37.946439000000000 -86.177405000000000 36996
Sun Oct 12 00:00:00 GMT 2014 monikablaine Eastern white pine Pinus strobus First Needles 37.946439000000000 -86.177405000000000 36991
Sun Oct 12 00:00:00 GMT 2014 monikablaine Eastern white pine Pinus strobus Pollen (Early) 37.946439000000000 -86.177405000000000 36992
Sun Oct 12 00:00:00 GMT 2014 monikablaine Eastern white pine Pinus strobus First Needles 37.946439000000000 -86.177405000000000 37002
Sun Oct 12 00:00:00 GMT 2014 monikablaine Eastern white pine Pinus strobus Pollen (Early) 37.946439000000000 -86.177405000000000 37003
Sun Oct 12 00:00:00 GMT 2014 monikablaine Eastern white pine Pinus strobus Fruit (Early) 37.946439000000000 -86.177405000000000 37004
Sun Oct 12 00:00:00 GMT 2014 monikablaine Eastern white pine Pinus strobus Fruit (Middle) 37.946439000000000 -86.177405000000000 36993
Tue Oct 14 00:00:00 GMT 2014 AntonioN Eastern white pine Pinus strobus First Needles (None) 42.656967000000000 -71.408420000000000 37124
Tue Oct 14 00:00:00 GMT 2014 AntonioN Eastern white pine Pinus strobus Pollen (None) 42.656967000000000 -71.408420000000000 37125
Tue Oct 14 00:00:00 GMT 2014 AntonioN Eastern white pine Pinus strobus Fruit (None) 42.656967000000000 -71.408420000000000 37126
Tue Sep 02 00:00:00 GMT 2014 AntonioN Eastern white pine Pinus strobus First Needles (None) 42.656967000000000 -71.408420000000000 37162
Tue Sep 02 00:00:00 GMT 2014 AntonioN Eastern white pine Pinus strobus Pollen (None) 42.656967000000000 -71.408420000000000 37163
Tue Sep 02 00:00:00 GMT 2014 AntonioN Eastern white pine Pinus strobus Fruit (None) 42.656967000000000 -71.408420000000000 37164
Tue Sep 02 00:00:00 GMT 2014 patricksavage Eastern white pine Pinus strobus First Needles (None) 42.656403000000000 -71.408129000000000 37110
Tue Sep 02 00:00:00 GMT 2014 patricksavage Eastern white pine Pinus strobus Pollen (None) 42.656403000000000 -71.408129000000000 37111
Tue Sep 02 00:00:00 GMT 2014 patricksavage Eastern white pine Pinus strobus Fruit (Middle) 42.656403000000000 -71.408129000000000 37112
Tue Sep 02 00:00:00 GMT 2014 JennaIACS Eastern white pine Pinus strobus First Needles (None) 42.657025000000000 -71.408819000000000 37113
Tue Sep 02 00:00:00 GMT 2014 JennaIACS Eastern white pine Pinus strobus Pollen (None) 42.657025000000000 -71.408819000000000 37114
Tue Sep 02 00:00:00 GMT 2014 JennaIACS Eastern white pine Pinus strobus Fruit (None) 42.657025000000000 -71.408819000000000 37115
Tue Oct 14 00:00:00 GMT 2014 patricksavage Eastern white pine Pinus strobus First Needles (None) 42.656498000000000 -71.408215000000000 37116
Tue Oct 14 00:00:00 GMT 2014 patricksavage Eastern white pine Pinus strobus Pollen (None) 42.656498000000000 -71.408215000000000 37117
Tue Oct 14 00:00:00 GMT 2014 patricksavage Eastern white pine Pinus strobus Fruit (None) 42.656498000000000 -71.408215000000000 37118
Tue Oct 14 00:00:00 GMT 2014 JennaIACS Eastern white pine Pinus strobus First Needles (None) 42.657025000000000 -71.408819000000000 37107
Tue Oct 14 00:00:00 GMT 2014 JennaIACS Eastern white pine Pinus strobus Pollen (None) 42.657025000000000 -71.408819000000000 37108
Tue Oct 14 00:00:00 GMT 2014 JennaIACS Eastern white pine Pinus strobus Fruit (None) 42.657025000000000 -71.408819000000000 37109
Thu Oct 16 00:00:00 GMT 2014 mlgsnipars Eastern white pine Pinus strobus First Needles (None) 42.658620000000000 -71.408140000000000 37373
Thu Oct 16 00:00:00 GMT 2014 mlgsnipars Eastern white pine Pinus strobus Pollen (None) 42.658620000000000 -71.408140000000000 37374
Thu Oct 16 00:00:00 GMT 2014 mlgsnipars Eastern white pine Pinus strobus Fruit (None) 42.658620000000000 -71.408140000000000 37375
Fri Oct 17 00:00:00 GMT 2014 rshuman Eastern white pine Pinus strobus First Needles (None) 44.669140000000000 -73.663090000000000 37873
Fri Oct 17 00:00:00 GMT 2014 rshuman Eastern white pine Pinus strobus Pollen (None) 44.669140000000000 -73.663090000000000 37874
Fri Oct 17 00:00:00 GMT 2014 rshuman Eastern white pine Pinus strobus Fruit (None) 44.669140000000000 -73.663090000000000 37875
Sat Oct 04 00:00:00 GMT 2014 rshuman Eastern white pine Pinus strobus First Needles (None) 44.712080000000000 -73.615410000000000 37782
Sat Oct 04 00:00:00 GMT 2014 rshuman Eastern white pine Pinus strobus Pollen (None) 44.712080000000000 -73.615410000000000 37783
Sat Oct 04 00:00:00 GMT 2014 rshuman Eastern white pine Pinus strobus Fruit (Late) 44.712080000000000 -73.615410000000000 37784
Sun Oct 05 00:00:00 GMT 2014 rshuman Eastern white pine Pinus strobus First Needles 44.690290000000000 -73.611030000000000 37798
Sun Oct 05 00:00:00 GMT 2014 rshuman Eastern white pine Pinus strobus Pollen (None) 44.690290000000000 -73.611030000000000 37799
Sun Oct 05 00:00:00 GMT 2014 rshuman Eastern white pine Pinus strobus Fruit (Middle) 44.690290000000000 -73.611030000000000 37800
Fri Oct 17 00:00:00 GMT 2014 rshuman Eastern white pine Pinus strobus First Needles 44.700900000000000 -73.563800000000000 37713
Fri Oct 17 00:00:00 GMT 2014 rshuman Eastern white pine Pinus strobus Pollen (None) 44.700900000000000 -73.563800000000000 37714
Fri Oct 17 00:00:00 GMT 2014 rshuman Eastern white pine Pinus strobus Fruit (None) 44.700900000000000 -73.563800000000000 37715
Fri Oct 17 00:00:00 GMT 2014 rshuman Eastern white pine Pinus strobus First Needles (None) 44.615710000000000 -73.785310000000000 37958
Fri Oct 17 00:00:00 GMT 2014 rshuman Eastern white pine Pinus strobus Pollen (None) 44.615710000000000 -73.785310000000000 37959
Fri Oct 17 00:00:00 GMT 2014 rshuman Eastern white pine Pinus strobus Fruit (None) 44.615710000000000 -73.785310000000000 37960
Fri Oct 17 00:00:00 GMT 2014 Odahviing_123 Eastern white pine Pinus strobus First Needles (None) 42.657129000000000 -71.408966000000000 38111
Fri Oct 17 00:00:00 GMT 2014 Odahviing_123 Eastern white pine Pinus strobus Pollen (None) 42.657129000000000 -71.408966000000000 38112
Fri Oct 17 00:00:00 GMT 2014 Odahviing_123 Eastern white pine Pinus strobus Fruit (None) 42.657129000000000 -71.408966000000000 38113
Fri Oct 17 00:00:00 GMT 2014 rshuman Eastern white pine Pinus strobus First Needles (None) 44.696664000000000 -73.657547000000000 38305
Fri Oct 17 00:00:00 GMT 2014 rshuman Eastern white pine Pinus strobus Pollen (Middle) 44.696664000000000 -73.657547000000000 38306
Fri Oct 17 00:00:00 GMT 2014 rshuman Eastern white pine Pinus strobus Fruit (Middle) 44.696664000000000 -73.657547000000000 38307
Fri Oct 17 00:00:00 GMT 2014 rshuman Eastern white pine Pinus strobus First Needles (None) 44.698370000000000 -73.562690000000000 38315
Fri Oct 17 00:00:00 GMT 2014 rshuman Eastern white pine Pinus strobus Pollen (None) 44.698370000000000 -73.562690000000000 38316
Fri Oct 17 00:00:00 GMT 2014 rshuman Eastern white pine Pinus strobus Fruit (Late) 44.698370000000000 -73.562690000000000 38317
Fri Oct 17 00:00:00 GMT 2014 rshuman Eastern white pine Pinus strobus First Needles (None) 44.676180000000000 -73.667960000000000 38513
Fri Oct 17 00:00:00 GMT 2014 rshuman Eastern white pine Pinus strobus Pollen (None) 44.676180000000000 -73.667960000000000 38514
Fri Oct 17 00:00:00 GMT 2014 rshuman Eastern white pine Pinus strobus Fruit (Late) 44.676180000000000 -73.667960000000000 38515
Fri Oct 17 00:00:00 GMT 2014 rshuman Eastern white pine Pinus strobus First Needles 44.708800000000000 -73.591220000000000 38461
Fri Oct 17 00:00:00 GMT 2014 rshuman Eastern white pine Pinus strobus Pollen (None) 44.708800000000000 -73.591220000000000 38462
Fri Oct 17 00:00:00 GMT 2014 rshuman Eastern white pine Pinus strobus Fruit (Middle) 44.708800000000000 -73.591220000000000 38463
Fri Oct 17 00:00:00 GMT 2014 rshuman Eastern white pine Pinus strobus First Needles (None) 44.701370000000000 -73.567780000000000 38491
Fri Oct 17 00:00:00 GMT 2014 rshuman Eastern white pine Pinus strobus Pollen (None) 44.701370000000000 -73.567780000000000 38492
Fri Oct 17 00:00:00 GMT 2014 rshuman Eastern white pine Pinus strobus Fruit (Middle) 44.701370000000000 -73.567780000000000 38493
Sat May 10 00:00:00 GMT 2014 SusannahPrindle Eastern white pine Pinus strobus First Needles 39.096700000000000 -77.023900000000000 42972
Sun Aug 10 00:00:00 GMT 2014 SusannahPrindle Eastern white pine Pinus strobus Full Fruiting 39.096700000000000 -77.023900000000000 42973
Fri Mar 20 00:00:00 GMT 2015 dhaan2014 Eastern white pine Pinus strobus First Needles (None) 42.340130000000000 -71.802890000000000 45197
Fri Mar 20 00:00:00 GMT 2015 dhaan2014 Eastern white pine Pinus strobus Pollen (None) 42.340130000000000 -71.802890000000000 45198
Fri Mar 20 00:00:00 GMT 2015 dhaan2014 Eastern white pine Pinus strobus Fruit (None) 42.340130000000000 -71.802890000000000 45199
Wed Apr 22 00:00:00 GMT 2015 seekerscience Eastern white pine Pinus strobus First Needles (None) 38.551910000000000 -90.638620000000000 47368
Wed Apr 22 00:00:00 GMT 2015 seekerscience Eastern white pine Pinus strobus Pollen (None) 38.551910000000000 -90.638620000000000 47369
Wed Apr 22 00:00:00 GMT 2015 seekerscience Eastern white pine Pinus strobus Fruit (None) 38.551910000000000 -90.638620000000000 47370
Thu May 07 00:00:00 GMT 2015 KChapman Eastern white pine Pinus strobus First Needles 41.677310000000000 -87.800270000000000 50683
Thu May 07 00:00:00 GMT 2015 KChapman Eastern white pine Pinus strobus Pollen (None) 41.677310000000000 -87.800270000000000 50684
Thu May 07 00:00:00 GMT 2015 KChapman Eastern white pine Pinus strobus Fruit (None) 41.677310000000000 -87.800270000000000 50685
Fri May 15 00:00:00 GMT 2015 KChapman Eastern white pine Pinus strobus First Needles 41.677310000000000 -87.800270000000000 50731
Fri May 15 00:00:00 GMT 2015 KChapman Eastern white pine Pinus strobus Pollen (None) 41.677310000000000 -87.800270000000000 50732
Fri May 15 00:00:00 GMT 2015 KChapman Eastern white pine Pinus strobus Fruit (None) 41.677310000000000 -87.800270000000000 50733
Mon May 04 00:00:00 GMT 2015 birdlover Eastern white pine Pinus strobus First Needles 40.790300000000000 -96.791500000000000 51087
Tue May 12 00:00:00 GMT 2015 SusannahPrindle Eastern white pine Pinus strobus First Needles 39.096700000000000 -77.023900000000000 51854
Wed May 13 00:00:00 GMT 2015 SusannahPrindle Eastern white pine Pinus strobus Full Pollen 39.096700000000000 -77.023900000000000 51855
Thu Sep 17 00:00:00 GMT 2015 KChapman Eastern white pine Pinus strobus First Needles (None) 41.677310000000000 -87.800270000000000 53388
Thu Sep 17 00:00:00 GMT 2015 KChapman Eastern white pine Pinus strobus Pollen (None) 41.677310000000000 -87.800270000000000 53389
Thu Sep 17 00:00:00 GMT 2015 KChapman Eastern white pine Pinus strobus Fruit (None) 41.677310000000000 -87.800270000000000 53390
Fri Sep 25 00:00:00 GMT 2015 KChapman Eastern white pine Pinus strobus First Needles (None) 41.677310000000000 -87.800270000000000 53458
Fri Sep 25 00:00:00 GMT 2015 KChapman Eastern white pine Pinus strobus Fruit (None) 41.677310000000000 -87.800270000000000 53460
Fri Sep 25 00:00:00 GMT 2015 KChapman Eastern white pine Pinus strobus Pollen (None) 41.677310000000000 -87.800270000000000 53459
Thu Oct 01 00:00:00 GMT 2015 KChapman Eastern white pine Pinus strobus First Needles (None) 41.677310000000000 -87.800270000000000 54361
Thu Oct 01 00:00:00 GMT 2015 KChapman Eastern white pine Pinus strobus Pollen (None) 41.677310000000000 -87.800270000000000 54362
Thu Oct 01 00:00:00 GMT 2015 KChapman Eastern white pine Pinus strobus Fruit (None) 41.677310000000000 -87.800270000000000 54363
Thu Oct 15 00:00:00 GMT 2015 KChapman Eastern white pine Pinus strobus First Needles (None) 41.677310000000000 -87.800270000000000 54399
Thu Oct 15 00:00:00 GMT 2015 KChapman Eastern white pine Pinus strobus Pollen (None) 41.677310000000000 -87.800270000000000 54400
Thu Oct 15 00:00:00 GMT 2015 KChapman Eastern white pine Pinus strobus Fruit (None) 41.677310000000000 -87.800270000000000 54401
Wed Nov 04 00:00:00 GMT 2015 rshuman Eastern white pine Pinus strobus First Needles (None) 44.675500000000000 -73.727410000000000 55521
Wed Nov 04 00:00:00 GMT 2015 rshuman Eastern white pine Pinus strobus Pollen (None) 44.675500000000000 -73.727410000000000 55522
Wed Nov 04 00:00:00 GMT 2015 rshuman Eastern white pine Pinus strobus Fruit (None) 44.675500000000000 -73.727410000000000 55523
Wed Nov 04 00:00:00 GMT 2015 rshuman Eastern white pine Pinus strobus First Needles (None) 44.698100000000000 -73.631500000000000 55576
Wed Nov 04 00:00:00 GMT 2015 rshuman Eastern white pine Pinus strobus Pollen (None) 44.698100000000000 -73.631500000000000 55577
Wed Nov 04 00:00:00 GMT 2015 rshuman Eastern white pine Pinus strobus Fruit (None) 44.698100000000000 -73.631500000000000 55578
Wed Nov 04 00:00:00 GMT 2015 rshuman Eastern white pine Pinus strobus First Needles (None) 44.749466000000000 -73.640669000000000 55582
Wed Nov 04 00:00:00 GMT 2015 rshuman Eastern white pine Pinus strobus Pollen (None) 44.749466000000000 -73.640669000000000 55583
Wed Nov 04 00:00:00 GMT 2015 rshuman Eastern white pine Pinus strobus Fruit (None) 44.749466000000000 -73.640669000000000 55585
Tue Nov 03 00:00:00 GMT 2015 rshuman Eastern white pine Pinus strobus First Needles (None) 44.690000000000000 -73.560000000000000 55920
Tue Nov 03 00:00:00 GMT 2015 rshuman Eastern white pine Pinus strobus Pollen (Middle) 44.690000000000000 -73.560000000000000 55921
Tue Nov 03 00:00:00 GMT 2015 rshuman Eastern white pine Pinus strobus Fruit (None) 44.690000000000000 -73.560000000000000 55922
Wed Nov 04 00:00:00 GMT 2015 rshuman Eastern white pine Pinus strobus First Needles 44.695688000000000 -73.539691000000000 55986
Wed Nov 04 00:00:00 GMT 2015 rshuman Eastern white pine Pinus strobus Pollen (None) 44.695688000000000 -73.539691000000000 55987
Wed Nov 04 00:00:00 GMT 2015 rshuman Eastern white pine Pinus strobus Fruit (None) 44.695688000000000 -73.539691000000000 55988
Wed Nov 04 00:00:00 GMT 2015 rshuman Eastern white pine Pinus strobus First Needles (None) 44.648883000000000 -73.718946000000000 55998
Wed Nov 04 00:00:00 GMT 2015 rshuman Eastern white pine Pinus strobus Pollen (None) 44.648883000000000 -73.718946000000000 55999
Wed Nov 04 00:00:00 GMT 2015 rshuman Eastern white pine Pinus strobus Fruit (None) 44.648883000000000 -73.718946000000000 56000
Wed Nov 04 00:00:00 GMT 2015 rshuman Eastern white pine Pinus strobus Pollen (None) 44.689520000000000 -73.662090000000000 56224
Wed Nov 04 00:00:00 GMT 2015 rshuman Eastern white pine Pinus strobus Fruit (None) 44.689520000000000 -73.662090000000000 56225
Wed Nov 04 00:00:00 GMT 2015 rshuman Eastern white pine Pinus strobus First Needles (None) 44.689520000000000 -73.662090000000000 56223
Tue Nov 17 00:00:00 GMT 2015 imohamed Eastern white pine Pinus strobus First Needles 39.629200000000000 -104.959630000000000 57269
Tue Nov 17 00:00:00 GMT 2015 imohamed Eastern white pine Pinus strobus Pollen (None) 39.629200000000000 -104.959630000000000 57270
Tue Nov 17 00:00:00 GMT 2015 imohamed Eastern white pine Pinus strobus Fruit (None) 39.629200000000000 -104.959630000000000 57271
Fri Nov 13 00:00:00 GMT 2015 brooklyn2014 Eastern white pine Pinus strobus First Needles (None) 38.814700000000000 -82.930600000000000 57676
Fri Nov 13 00:00:00 GMT 2015 brooklyn2014 Eastern white pine Pinus strobus Pollen (None) 38.814700000000000 -82.930600000000000 57677
Fri Nov 13 00:00:00 GMT 2015 brooklyn2014 Eastern white pine Pinus strobus Fruit (None) 38.814700000000000 -82.930600000000000 57678
Wed Nov 25 00:00:00 GMT 2015 brooklyn2014 Eastern white pine Pinus strobus First Needles (None) 38.814700000000000 -82.930600000000000 57679
Wed Nov 25 00:00:00 GMT 2015 brooklyn2014 Eastern white pine Pinus strobus Pollen (None) 38.814700000000000 -82.930600000000000 57680
Wed Nov 25 00:00:00 GMT 2015 brooklyn2014 Eastern white pine Pinus strobus Fruit (None) 38.814700000000000 -82.930600000000000 57681
Mon Nov 02 00:00:00 GMT 2015 brooklyn2014 Eastern white pine Pinus strobus First Needles (None) 38.814700000000000 -82.930600000000000 57668
Mon Nov 02 00:00:00 GMT 2015 brooklyn2014 Eastern white pine Pinus strobus Pollen (Early) 38.814700000000000 -82.930600000000000 57669
Mon Nov 02 00:00:00 GMT 2015 brooklyn2014 Eastern white pine Pinus strobus Fruit (Late) 38.814700000000000 -82.930600000000000 57670
Thu Oct 08 00:00:00 GMT 2015 nwccStudent94 Eastern white pine Pinus strobus First Needles 41.935760000000000 -73.111360000000000 58333
Thu Oct 08 00:00:00 GMT 2015 nwccStudent94 Eastern white pine Pinus strobus First Pollen 41.935760000000000 -73.111360000000000 58334
Thu Oct 08 00:00:00 GMT 2015 nwccStudent94 Eastern white pine Pinus strobus Full Pollen 41.935760000000000 -73.111360000000000 58335
Tue Feb 07 00:00:00 GMT 2017 MBGYouthandFamily Eastern white pine Pinus strobus First Needles (None) 38.614890500000000 -90.258110400000000 74763
Tue Feb 07 00:00:00 GMT 2017 MBGYouthandFamily Eastern white pine Pinus strobus Pollen (None) 38.614890500000000 -90.258110400000000 74764
Tue Feb 07 00:00:00 GMT 2017 MBGYouthandFamily Eastern white pine Pinus strobus Fruit (None) 38.614890500000000 -90.258110400000000 74765
Tue Feb 07 00:00:00 GMT 2017 MBGYouthandFamily Eastern white pine Pinus strobus First Needles (None) 38.614947100000000 -90.258373100000000 74766
Tue Feb 07 00:00:00 GMT 2017 MBGYouthandFamily Eastern white pine Pinus strobus Pollen (None) 38.614947100000000 -90.258373100000000 74767
Tue Feb 07 00:00:00 GMT 2017 MBGYouthandFamily Eastern white pine Pinus strobus Fruit (None) 38.614947100000000 -90.258373100000000 74768
Mon Mar 13 00:00:00 GMT 2017 MBGYouthandFamily Eastern white pine Pinus strobus First Needles (None) 38.614890500000000 -90.258110400000000 75587
Mon Mar 13 00:00:00 GMT 2017 MBGYouthandFamily Eastern white pine Pinus strobus Pollen (None) 38.614890500000000 -90.258110400000000 75588
Mon Mar 13 00:00:00 GMT 2017 MBGYouthandFamily Eastern white pine Pinus strobus Fruit (None) 38.614890500000000 -90.258110400000000 75589
Mon Mar 13 00:00:00 GMT 2017 MBGYouthandFamily Eastern white pine Pinus strobus First Needles (None) 38.614947100000000 -90.258373100000000 75590
Mon Mar 13 00:00:00 GMT 2017 MBGYouthandFamily Eastern white pine Pinus strobus Pollen (None) 38.614947100000000 -90.258373100000000 75591
Mon Mar 13 00:00:00 GMT 2017 MBGYouthandFamily Eastern white pine Pinus strobus Fruit (None) 38.614947100000000 -90.258373100000000 75592
Sun Mar 19 00:00:00 GMT 2017 jamesang93 Eastern white pine Pinus strobus First Needles (None) 42.366250000000000 -71.258530000000000 75676
Sun Mar 19 00:00:00 GMT 2017 jamesang93 Eastern white pine Pinus strobus Pollen (None) 42.366250000000000 -71.258530000000000 75677
Sun Mar 19 00:00:00 GMT 2017 jamesang93 Eastern white pine Pinus strobus Fruit (None) 42.366250000000000 -71.258530000000000 75678

*All downloadable materials require the free Adobe Reader.